,,Stat5,,Stat1,,Stat2,,Stat3,,Stat4,,Wind1,,Wind1,
time,status,PA1M_AVG,status,PR1M_SUM,status,RH1M_AVG,status,SR1M_AVG,status,TA1M_AVG,status,W1dAve1m,status,W1sAve1m,
2003-06-20, 00:00:00,VALID,916.814,VALID,0,VALID,98.4642,VALID,-0.0169808,VALID,18.8532,VALID,98,VALID,1.37287,
2003-06-20, 00:01:00,VALID,916.804,VALID,0,VALID,98.4082,VALID,0.0169808,VALID,19.0208,VALID,110,VALID,1.37226,
2003-06-20, 00:02:00,VALID,916.793,VALID,0,VALID,97.9275,VALID,-0.0169808,VALID,19.141,VALID,110,VALID,1.05059,
2003-06-20, 00:03:00,VALID,916.779,VALID,0,VALID,96.9891,VALID,0,VALID,19.1691,VALID,120,VALID,0.625977,
2003-06-20, 00:04:00,VALID,916.766,VALID,0,VALID,96.305,VALID,-0.0169808,VALID,19.1536,VALID,116,VALID,0.822985,
2003-06-20, 00:05:00,VALID,916.743,VALID,0,VALID,96.6254,VALID,-0.0169808,VALID,19.1924,VALID,118,VALID,1.28991,
2003-06-20, 00:06:00,VALID,916.736,VALID,0,VALID,96.3457,VALID,0,VALID,19.2406,VALID,118,VALID,0.8017,
2003-06-20, 00:07:00,VALID,916.721,VALID,0,VALID,96.2859,VALID,0,VALID,19.2865,VALID,104,VALID,1.22637,
2003-06-20, 00:08:00,VALID,916.709,VALID,0,VALID,96.1943,VALID,0,VALID,19.3732,VALID,103,VALID,1.03359,
2003-06-20, 00:09:00,VALID,916.694,VALID,0,VALID,95.3742,VALID,-0.0339617,VALID,19.4281,VALID,84,VALID,0.596284,
2003-06-20, 00:10:00,VALID,916.688,VALID,0,VALID,94.7053,VALID,-0.0169808,VALID,19.4509,VALID,78,VALID,0.65435,
2003-06-20, 00:11:00,VALID,916.681,VALID,0,VALID,93.6575,VALID,0,VALID,19.367,VALID,58,VALID,0.766016,
2003-06-20, 00:12:00,VALID,916.666,VALID,0,VALID,94.3569,VALID,-0.0169808,VALID,19.3153,VALID,46,VALID,0.841797,
2003-06-20, 00:13:00,VALID,916.666,VALID,0,VALID,94.4459,VALID,-0.0339617,VALID,19.2959,VALID,52,VALID,0.991964,
2003-06-20, 00:14:00,VALID,916.655,VALID,0,VALID,94.6646,VALID,-0.0169808,VALID,19.2897,VALID,56,VALID,1.01002,
2003-06-20, 00:15:00,VALID,916.662,VALID,0,VALID,95.1084,VALID,-0.0679233,VALID,19.2862,VALID,68,VALID,0.915211,
2003-06-20, 00:16:00,VALID,916.65,VALID,0,VALID,95.2813,VALID,-0.0339617,VALID,19.3349,VALID,62,VALID,0.915625,
2003-06-20, 00:17:00,VALID,916.634,VALID,0,VALID,95.3258,VALID,-0.0339617,VALID,19.3645,VALID,96,VALID,0.81582,
2003-06-20, 00:18:00,VALID,916.636,VALID,0,VALID,95.4288,VALID,-0.0169808,VALID,19.3928,VALID,111,VALID,0.860045,
2003-06-20, 00:19:00,VALID,916.636,VALID,0,VALID,95.4772,VALID,-0.0169808,VALID,19.4248,VALID,111,VALID,0.934053,
2003-06-20, 00:20:00,VALID,916.637,VALID,0,VALID,95.3589,VALID,-0.0169808,VALID,19.4708,VALID,113,VALID,1.00062,
2003-06-20, 00:21:00,VALID,916.627,VALID,0,VALID,95.2267,VALID,0,VALID,19.4506,VALID,113,VALID,0.865402,
2003-06-20, 00:22:00,VALID,916.623,VALID,0,VALID,95.3386,VALID,-0.0169808,VALID,19.4641,VALID,114,VALID,0.984375,
2003-06-20, 00:23:00,VALID,916.614,VALID,0,VALID,95.5293,VALID,-0.0169808,VALID,19.474,VALID,109,VALID,0.915465,
2003-06-20, 00:24:00,VALID,916.601,VALID,0,VALID,95.1618,VALID,-0.0169808,VALID,19.4578,VALID,102,VALID,0.769761,
2003-06-20, 00:25:00,VALID,916.595,VALID,0,VALID,95.2419,VALID,-0.0169808,VALID,19.4348,VALID,103,VALID,0.983036,
2003-06-20, 00:26:00,VALID,916.578,VALID,0,VALID,95.0321,VALID,-0.0339617,VALID,19.3928,VALID,94,VALID,0.830664,
2003-06-20, 00:27:00,VALID,916.567,VALID,0,VALID,95.2597,VALID,-0.0169808,VALID,19.3379,VALID,93,VALID,0.914286,
2003-06-20, 00:28:00,VALID,916.54,VALID,0,VALID,95.6145,VALID,-0.0169808,VALID,19.3188,VALID,92,VALID,0.803768,
2003-06-20, 00:29:00,VALID,916.513,VALID,0,VALID,95.3398,VALID,-0.0679233,VALID,19.2895,VALID,99,VALID,0.651727,
2003-06-20, 00:30:00,VALID,916.504,VALID,0,VALID,95.0842,VALID,0,VALID,19.2217,VALID,89,VALID,0.856027,
2003-06-20, 00:31:00,VALID,916.489,VALID,0,VALID,95.5929,VALID,0,VALID,19.1924,VALID,81,VALID,0.918304,
2003-06-20, 00:32:00,VALID,916.477,VALID,0,VALID,95.9502,VALID,-0.0169808,VALID,19.1961,VALID,92,VALID,0.993389,
2003-06-20, 00:33:00,VALID,916.462,VALID,0,VALID,96.1893,VALID,-0.0169808,VALID,19.2224,VALID,101,VALID,0.857077,
2003-06-20, 00:34:00,VALID,916.45,VALID,0,VALID,96.1893,VALID,-0.0509425,VALID,19.2445,VALID,94,VALID,0.879018,
2003-06-20, 00:35:00,VALID,916.436,VALID,0,VALID,96.0812,VALID,-0.0509425,VALID,19.2803,VALID,87,VALID,1.07871,
2003-06-20, 00:36:00,VALID,916.418,VALID,0,VALID,95.7823,VALID,-0.0509425,VALID,19.3096,VALID,94,VALID,0.967857,
2003-06-20, 00:37:00,VALID,916.404,VALID,0,VALID,95.5357,VALID,-0.0339617,VALID,19.3252,VALID,94,VALID,0.964614,
2003-06-20, 00:38:00,VALID,916.403,VALID,0,VALID,95.4835,VALID,-0.0339617,VALID,19.3317,VALID,111,VALID,1.26007,
2003-06-20, 00:39:00,VALID,916.406,VALID,0,VALID,95.1415,VALID,-0.0339617,VALID,19.3538,VALID,112,VALID,1.25893,
2003-06-20, 00:40:00,VALID,916.389,VALID,0,VALID,94.863,VALID,-0.0339617,VALID,19.3379,VALID,117,VALID,1.04062,
2003-06-20, 00:41:00,VALID,916.392,VALID,0,VALID,94.807,VALID,-0.0169808,VALID,19.3185,VALID,112,VALID,0.955128,
2003-06-20, 00:42:00,VALID,916.4,VALID,0,VALID,95.0003,VALID,-0.0169808,VALID,19.2996,VALID,112,VALID,0.964154,
2003-06-20, 00:43:00,VALID,916.398,VALID,0,VALID,95.0575,VALID,-0.0169808,VALID,19.2706,VALID,105,VALID,1.0596,
2003-06-20, 00:44:00,VALID,916.407,VALID,0,VALID,95.3157,VALID,-0.0339617,VALID,19.2507,VALID,105,VALID,1.05137,
2003-06-20, 00:45:00,VALID,916.396,VALID,0,VALID,95.1643,VALID,0,VALID,19.2152,VALID,93,VALID,0.990848,
2003-06-20, 00:46:00,VALID,916.397,VALID,0,VALID,95.645,VALID,-0.0169808,VALID,19.2157,VALID,117,VALID,1.14821,
2003-06-20, 00:47:00,VALID,916.382,VALID,0,VALID,95.3653,VALID,0,VALID,19.1956,VALID,110,VALID,0.711965,
2003-06-20, 00:48:00,VALID,916.39,VALID,0,VALID,95.2686,VALID,-0.0509425,VALID,19.1829,VALID,121,VALID,0.685045,
2003-06-20, 00:49:00,VALID,916.388,VALID,0,VALID,95.2152,VALID,0,VALID,19.1407,VALID,119,VALID,0.823884,
2003-06-20, 00:50:00,VALID,916.391,VALID,0,VALID,95.7238,VALID,0.0169808,VALID,19.1412,VALID,106,VALID,1.01162,
2003-06-20, 00:51:00,VALID,916.391,VALID,0,VALID,95.7544,VALID,0,VALID,19.1541,VALID,101,VALID,1.01425,
2003-06-20, 00:52:00,VALID,916.395,VALID,0,VALID,95.9947,VALID,-0.0169808,VALID,19.1638,VALID,107,VALID,1.24799,
2003-06-20, 00:53:00,VALID,916.394,VALID,0,VALID,95.94,VALID,-0.0169808,VALID,19.1934,VALID,99,VALID,1.19258,
2003-06-20, 00:54:00,VALID,916.379,VALID,0,VALID,95.8637,VALID,-0.0339617,VALID,19.18,VALID,100,VALID,1.00848,
2003-06-20, 00:55:00,VALID,916.389,VALID,0,VALID,95.7162,VALID,-0.0509425,VALID,19.2001,VALID,89,VALID,0.736673,
2003-06-20, 00:56:00,VALID,916.391,VALID,0,VALID,95.4619,VALID,-0.0169808,VALID,19.1797,VALID,98,VALID,0.857525,
2003-06-20, 00:57:00,VALID,916.39,VALID,0,VALID,95.5267,VALID,0,VALID,19.1608,VALID,97,VALID,0.84308,
2003-06-20, 00:58:00,VALID,916.393,VALID,0,VALID,95.6806,VALID,-0.0169808,VALID,19.1574,VALID,88,VALID,0.878795,
2003-06-20, 00:59:00,VALID,916.404,VALID,0,VALID,95.6323,VALID,0,VALID,19.1509,VALID,86,VALID,1.22095,
2003-06-20, 01:00:00,VALID,916.401,VALID,0,VALID,95.7976,VALID,0,VALID,19.1578,VALID,100,VALID,1.28585,
2003-06-20, 01:01:00,VALID,916.383,VALID,0,VALID,95.5865,VALID,0,VALID,19.1509,VALID,86,VALID,1.10312,
2003-06-20, 01:02:00,VALID,916.377,VALID,0,VALID,95.4314,VALID,0,VALID,19.1216,VALID,91,VALID,1.03672,
2003-06-20, 01:03:00,VALID,916.362,VALID,0,VALID,95.5776,VALID,0,VALID,19.0926,VALID,85,VALID,0.94308,
2003-06-20, 01:04:00,VALID,916.35,VALID,0,VALID,95.425,VALID,0,VALID,19.0377,VALID,92,VALID,1.22495,
2003-06-20, 01:05:00,VALID,916.342,VALID,0,VALID,95.9604,VALID,-0.0169808,VALID,19.0543,VALID,82,VALID,1.04482,
2003-06-20, 01:06:00,VALID,916.355,VALID,0,VALID,95.809,VALID,-0.0509425,VALID,19.0446,VALID,93,VALID,0.970759,
2003-06-20, 01:07:00,VALID,916.347,VALID,0,VALID,96.01,VALID,-0.0509425,VALID,19.0213,VALID,90,VALID,1.07902,
2003-06-20, 01:08:00,VALID,916.354,VALID,0,VALID,95.9934,VALID,-0.0339617,VALID,19.0451,VALID,86,VALID,1.07792,
2003-06-20, 01:09:00,VALID,916.358,VALID,0,VALID,95.8688,VALID,-0.0509425,VALID,19.0575,VALID,91,VALID,1.08778,
2003-06-20, 01:10:00,VALID,916.362,VALID,0,VALID,95.6158,VALID,-0.0339617,VALID,19.0543,VALID,88,VALID,0.990848,
2003-06-20, 01:11:00,VALID,916.362,VALID,0,VALID,95.4619,VALID,-0.0169808,VALID,19.0444,VALID,110,VALID,0.780078,
2003-06-20, 01:12:00,VALID,916.367,VALID,0,VALID,95.5382,VALID,-0.0679233,VALID,19.0287,VALID,120,VALID,0.635268,
2003-06-20, 01:13:00,VALID,916.348,VALID,0,VALID,95.4746,VALID,-0.0339617,VALID,19.0119,VALID,129,VALID,0.335938,
2003-06-20, 01:14:00,VALID,916.334,VALID,0,VALID,95.3042,VALID,-0.0849042,VALID,18.9934,VALID,128,VALID,0.117393,
2003-06-20, 01:15:00,VALID,916.323,VALID,0,VALID,95.2559,VALID,-0.0679233,VALID,18.9505,VALID,125,VALID,0.101786,
2003-06-20, 01:16:00,VALID,916.302,VALID,0,VALID,95.3996,VALID,-0.101885,VALID,18.9321,VALID,124,VALID,0.322545,
2003-06-20, 01:17:00,VALID,916.29,VALID,0,VALID,95.4683,VALID,-0.0849042,VALID,18.9125,VALID,105,VALID,0.486779,
2003-06-20, 01:18:00,VALID,916.284,VALID,0,VALID,95.5077,VALID,-0.0679233,VALID,18.8735,VALID,99,VALID,0.533778,
2003-06-20, 01:19:00,VALID,916.284,VALID,0,VALID,95.2495,VALID,-0.0849042,VALID,18.8422,VALID,89,VALID,0.599107,
2003-06-20, 01:20:00,VALID,916.301,VALID,0,VALID,95.6882,VALID,-0.0339617,VALID,18.8062,VALID,90,VALID,0.576172,
2003-06-20, 01:21:00,VALID,916.299,VALID,0,VALID,96.0888,VALID,-0.0849042,VALID,18.809,VALID,86,VALID,0.840848,
2003-06-20, 01:22:00,VALID,916.31,VALID,0,VALID,95.9388,VALID,-0.0339617,VALID,18.8482,VALID,104,VALID,0.993796,
2003-06-20, 01:23:00,VALID,916.316,VALID,0,VALID,95.7417,VALID,-0.0509425,VALID,18.8772,VALID,117,VALID,0.66838,
2003-06-20, 01:24:00,VALID,916.335,VALID,0,VALID,95.6196,VALID,-0.0679233,VALID,18.8964,VALID,95,VALID,0.907812,
2003-06-20, 01:25:00,VALID,916.319,VALID,0,VALID,95.4479,VALID,-0.0849042,VALID,18.9256,VALID,115,VALID,0.977902,
2003-06-20, 01:26:00,VALID,916.316,VALID,0,VALID,95.2762,VALID,-0.0509425,VALID,18.9319,VALID,100,VALID,0.658854,
2003-06-20, 01:27:00,VALID,916.315,VALID,0,VALID,94.9876,VALID,-0.0509425,VALID,18.9249,VALID,94,VALID,0.757123,
2003-06-20, 01:28:00,VALID,916.307,VALID,0,VALID,95.013,VALID,-0.0339617,VALID,18.8996,VALID,100,VALID,0.787946,
2003-06-20, 01:29:00,VALID,916.311,VALID,0,VALID,95.1821,VALID,-0.0169808,VALID,18.8768,VALID,94,VALID,0.799609,
2003-06-20, 01:30:00,VALID,916.302,VALID,0,VALID,95.4238,VALID,-0.0339617,VALID,18.8768,VALID,81,VALID,0.900223,
2003-06-20, 01:31:00,VALID,916.285,VALID,0,VALID,95.4555,VALID,-0.0509425,VALID,18.8897,VALID,88,VALID,1.07858,
2003-06-20, 01:32:00,VALID,916.295,VALID,0,VALID,95.3449,VALID,-0.0339617,VALID,18.9224,VALID,99,VALID,1.01295,
2003-06-20, 01:33:00,VALID,916.279,VALID,0,VALID,95.3335,VALID,-0.0169808,VALID,18.9319,VALID,100,VALID,1.18281,
2003-06-20, 01:34:00,VALID,916.284,VALID,0,VALID,95.1631,VALID,-0.0339617,VALID,18.9291,VALID,96,VALID,1.10179,
2003-06-20, 01:35:00,VALID,916.272,VALID,0,VALID,95.2305,VALID,-0.0679233,VALID,18.9289,VALID,95,VALID,0.974359,
2003-06-20, 01:36:00,VALID,916.256,VALID,0,VALID,95.1554,VALID,-0.0509425,VALID,18.9026,VALID,95,VALID,1.02413,
2003-06-20, 01:37:00,VALID,916.233,VALID,0,VALID,95.13,VALID,-0.0339617,VALID,18.8837,VALID,99,VALID,0.90558,
2003-06-20, 01:38:00,VALID,916.216,VALID,0,VALID,95.1834,VALID,-0.0339617,VALID,18.8383,VALID,90,VALID,0.890625,
2003-06-20, 01:39:00,VALID,916.211,VALID,0,VALID,95.2025,VALID,-0.101885,VALID,18.803,VALID,81,VALID,1.00692,
2003-06-20, 01:40:00,VALID,916.195,VALID,0,VALID,95.5471,VALID,-0.0509425,VALID,18.7642,VALID,88,VALID,1.21392,
2003-06-20, 01:41:00,VALID,916.195,VALID,0,VALID,95.9159,VALID,-0.0339617,VALID,18.7481,VALID,83,VALID,1.20498,
2003-06-20, 01:42:00,VALID,916.195,VALID,0,VALID,95.9311,VALID,-0.0339617,VALID,18.7317,VALID,84,VALID,1.21942,
2003-06-20, 01:43:00,VALID,916.186,VALID,0,VALID,96.0939,VALID,-0.0509425,VALID,18.7188,VALID,83,VALID,1.18996,
2003-06-20, 01:44:00,VALID,916.175,VALID,0,VALID,95.9871,VALID,-0.0509425,VALID,18.6801,VALID,93,VALID,1.07913,
2003-06-20, 01:45:00,VALID,916.144,VALID,0,VALID,96.3991,VALID,-0.0339617,VALID,18.6545,VALID,88,VALID,1.08571,
2003-06-20, 01:46:00,VALID,916.126,VALID,0,VALID,96.4817,VALID,0,VALID,18.6287,VALID,85,VALID,1.12946,
2003-06-20, 01:47:00,VALID,916.092,VALID,0,VALID,96.7106,VALID,-0.0679233,VALID,18.5962,VALID,95,VALID,1.14414,
2003-06-20, 01:48:00,VALID,916.059,VALID,0,VALID,97.0692,VALID,-0.0509425,VALID,18.6098,VALID,99,VALID,1.31496,
2003-06-20, 01:49:00,VALID,916.033,VALID,0,VALID,97.4558,VALID,-0.0169808,VALID,18.6451,VALID,104,VALID,1.19978,
2003-06-20, 01:50:00,VALID,916.016,VALID,0,VALID,97.3808,VALID,-0.0509425,VALID,18.6411,VALID,99,VALID,1.18318,
2003-06-20, 01:51:00,VALID,915.981,VALID,0,VALID,97.4316,VALID,-0.0169808,VALID,18.658,VALID,98,VALID,1.42321,
2003-06-20, 01:52:00,VALID,915.955,VALID,0,VALID,97.6414,VALID,0,VALID,18.6741,VALID,100,VALID,1.44085,
2003-06-20, 01:53:00,VALID,915.928,VALID,0,VALID,97.6681,VALID,-0.0339617,VALID,18.6997,VALID,101,VALID,1.40064,
2003-06-20, 01:54:00,VALID,915.917,VALID,0,VALID,97.6567,VALID,-0.0339617,VALID,18.7253,VALID,92,VALID,1.32606,
2003-06-20, 01:55:00,VALID,915.887,VALID,0,VALID,97.143,VALID,0,VALID,18.7188,VALID,87,VALID,1.04219,
2003-06-20, 01:56:00,VALID,915.874,VALID,0,VALID,97.0679,VALID,-0.0339617,VALID,18.6734,VALID,86,VALID,1.22402,
2003-06-20, 01:57:00,VALID,915.866,VALID,0,VALID,97.0654,VALID,-0.0169808,VALID,18.6639,VALID,86,VALID,1.14866,
2003-06-20, 01:58:00,VALID,915.86,VALID,0,VALID,96.9192,VALID,0,VALID,18.6317,VALID,82,VALID,1.11604,
2003-06-20, 01:59:00,VALID,915.855,VALID,0,VALID,96.8874,VALID,0,VALID,18.5959,VALID,85,VALID,1.10567,
2003-06-20, 02:00:00,VALID,915.856,VALID,0,VALID,96.9535,VALID,0.0169808,VALID,18.5733,VALID,78,VALID,1.17299,
2003-06-20, 02:01:00,VALID,915.86,VALID,0,VALID,96.909,VALID,-0.0169808,VALID,18.5477,VALID,86,VALID,1.27299,
2003-06-20, 02:02:00,VALID,915.859,VALID,0,VALID,97.0323,VALID,0,VALID,18.5385,VALID,86,VALID,1.27624,
2003-06-20, 02:03:00,VALID,915.863,VALID,0,VALID,97.2917,VALID,-0.0169808,VALID,18.5351,VALID,91,VALID,1.21461,
2003-06-20, 02:04:00,VALID,915.847,VALID,0,VALID,97.4685,VALID,0,VALID,18.5671,VALID,100,VALID,1.07254,
2003-06-20, 02:05:00,VALID,915.841,VALID,0,VALID,97.6376,VALID,0,VALID,18.6252,VALID,112,VALID,1.12266,
2003-06-20, 02:06:00,VALID,915.829,VALID,0,VALID,97.4761,VALID,0,VALID,18.6669,VALID,111,VALID,0.978571,
2003-06-20, 02:07:00,VALID,915.803,VALID,0,VALID,97.4621,VALID,0.0169808,VALID,18.722,VALID,109,VALID,1.04963,
2003-06-20, 02:08:00,VALID,915.792,VALID,0,VALID,97.3464,VALID,0,VALID,18.764,VALID,100,VALID,0.984169,
2003-06-20, 02:09:00,VALID,915.794,VALID,0,VALID,97.0972,VALID,0,VALID,18.7961,VALID,94,VALID,1.09018,
2003-06-20, 02:10:00,VALID,915.803,VALID,0,VALID,96.7856,VALID,0,VALID,18.8025,VALID,95,VALID,0.893973,
2003-06-20, 02:11:00,VALID,915.809,VALID,0,VALID,96.6318,VALID,-0.0339617,VALID,18.7961,VALID,107,VALID,0.664864,
2003-06-20, 02:12:00,VALID,915.83,VALID,0,VALID,96.6038,VALID,0.0169808,VALID,18.7894,VALID,122,VALID,0.689568,
2003-06-20, 02:13:00,VALID,915.843,VALID,0,VALID,96.6038,VALID,-0.0339617,VALID,18.7935,VALID,110,VALID,0.748214,
2003-06-20, 02:14:00,VALID,915.859,VALID,0,VALID,96.5809,VALID,-0.0339617,VALID,18.7998,VALID,127,VALID,0.894922,
2003-06-20, 02:15:00,VALID,915.873,VALID,0,VALID,96.2821,VALID,-0.0169808,VALID,18.7841,VALID,123,VALID,0.687277,
2003-06-20, 02:16:00,VALID,915.879,VALID,0,VALID,96.5555,VALID,-0.0169808,VALID,18.7712,VALID,106,VALID,0.784467,
2003-06-20, 02:17:00,VALID,915.889,VALID,0,VALID,96.5479,VALID,0,VALID,18.7672,VALID,95,VALID,0.730263,
2003-06-20, 02:18:00,VALID,915.886,VALID,0,VALID,96.9179,VALID,-0.0509425,VALID,18.8005,VALID,108,VALID,0.93058,
2003-06-20, 02:19:00,VALID,915.892,VALID,0,VALID,96.9128,VALID,0,VALID,18.8385,VALID,110,VALID,0.710045,
2003-06-20, 02:20:00,VALID,915.883,VALID,0,VALID,96.7246,VALID,-0.0339617,VALID,18.871,VALID,111,VALID,0.721154,
2003-06-20, 02:21:00,VALID,915.894,VALID,0,VALID,95.8955,VALID,-0.0339617,VALID,18.8479,VALID,86,VALID,0.495634,
2003-06-20, 02:22:00,VALID,915.894,VALID,0,VALID,92.9848,VALID,0,VALID,18.5482,VALID,40,VALID,0.648884,
2003-06-20, 02:23:00,VALID,915.902,VALID,0,VALID,93.4439,VALID,-0.0339617,VALID,18.3128,VALID,36,VALID,0.622852,
2003-06-20, 02:24:00,VALID,915.894,VALID,0,VALID,95.3297,VALID,-0.0169808,VALID,18.1989,VALID,65,VALID,0.658036,
2003-06-20, 02:25:00,VALID,915.891,VALID,0,VALID,97.2078,VALID,-0.0169808,VALID,18.3096,VALID,92,VALID,0.700138,
2003-06-20, 02:26:00,VALID,915.88,VALID,0,VALID,97.6325,VALID,-0.0169808,VALID,18.4057,VALID,115,VALID,0.394942,
2003-06-20, 02:27:00,VALID,915.888,VALID,0,VALID,96.792,VALID,0,VALID,18.3926,VALID,116,VALID,0.272098,
2003-06-20, 02:28:00,VALID,915.892,VALID,0,VALID,94.6404,VALID,0,VALID,18.1411,VALID,101,VALID,0.316295,
2003-06-20, 02:29:00,VALID,915.892,VALID,0,VALID,95.9311,VALID,0,VALID,18.0509,VALID,118,VALID,0.455929,
2003-06-20, 02:30:00,VALID,915.895,VALID,0,VALID,95.3907,VALID,0,VALID,17.9735,VALID,117,VALID,0.171875,
2003-06-20, 02:31:00,VALID,915.898,VALID,0,VALID,93.7757,VALID,0,VALID,17.722,VALID,90,VALID,0.318527,
2003-06-20, 02:32:00,VALID,915.914,VALID,0,VALID,94.5552,VALID,-0.0169808,VALID,17.5284,VALID,51,VALID,0.452344,
2003-06-20, 02:33:00,VALID,915.913,VALID,0,VALID,95.9349,VALID,-0.0509425,VALID,17.4993,VALID,45,VALID,0.420759,
2003-06-20, 02:34:00,VALID,915.898,VALID,0,VALID,96.8645,VALID,-0.0339617,VALID,17.5189,VALID,45,VALID,0.391314,
2003-06-20, 02:35:00,VALID,915.9,VALID,0,VALID,97.3426,VALID,0,VALID,17.5351,VALID,49,VALID,0.487253,
2003-06-20, 02:36:00,VALID,915.907,VALID,0,VALID,97.7215,VALID,-0.0169808,VALID,17.5579,VALID,49,VALID,0.392188,
2003-06-20, 02:37:00,VALID,915.905,VALID,0,VALID,97.6834,VALID,-0.0509425,VALID,17.5353,VALID,47,VALID,0.682813,
2003-06-20, 02:38:00,VALID,915.906,VALID,0,VALID,97.7749,VALID,-0.0339617,VALID,17.5032,VALID,56,VALID,0.657853,
2003-06-20, 02:39:00,VALID,915.903,VALID,0,VALID,98.5672,VALID,-0.0339617,VALID,17.6097,VALID,48,VALID,0.72932,
2003-06-20, 02:40:00,VALID,915.89,VALID,0,VALID,98.5405,VALID,-0.0169808,VALID,17.6289,VALID,45,VALID,0.84308,
2003-06-20, 02:41:00,VALID,915.895,VALID,0,VALID,98.4909,VALID,0,VALID,17.6097,VALID,48,VALID,0.860937,
2003-06-20, 02:42:00,VALID,915.892,VALID,0,VALID,98.5417,VALID,0,VALID,17.6162,VALID,47,VALID,0.8,
2003-06-20, 02:43:00,VALID,915.904,VALID,0,VALID,98.5379,VALID,-0.0169808,VALID,17.577,VALID,59,VALID,0.717142,
2003-06-20, 02:44:00,VALID,915.893,VALID,0,VALID,99.2716,VALID,-0.0169808,VALID,17.7128,VALID,67,VALID,0.802632,
2003-06-20, 02:45:00,VALID,915.896,VALID,0,VALID,99.5132,VALID,-0.0339617,VALID,17.8743,VALID,70,VALID,0.798214,
2003-06-20, 02:46:00,VALID,915.899,VALID,0,VALID,99.5603,VALID,-0.0169808,VALID,17.958,VALID,97,VALID,0.810938,
2003-06-20, 02:47:00,VALID,915.907,VALID,0,VALID,99.6315,VALID,-0.0339617,VALID,18.0678,VALID,100,VALID,1.02344,
2003-06-20, 02:48:00,VALID,915.91,VALID,0,VALID,99.62,VALID,0,VALID,18.1648,VALID,104,VALID,0.740579,
2003-06-20, 02:49:00,VALID,915.912,VALID,0,VALID,99.4115,VALID,-0.0169808,VALID,18.1874,VALID,119,VALID,0.579241,
2003-06-20, 02:50:00,VALID,915.907,VALID,0,VALID,99.4687,VALID,-0.0339617,VALID,18.2517,VALID,107,VALID,0.869531,
2003-06-20, 02:51:00,VALID,915.888,VALID,0,VALID,99.3708,VALID,0,VALID,18.3223,VALID,100,VALID,1.08058,
2003-06-20, 02:52:00,VALID,915.875,VALID,0,VALID,99.1152,VALID,-0.0169808,VALID,18.3615,VALID,104,VALID,0.954044,
2003-06-20, 02:53:00,VALID,915.86,VALID,0,VALID,98.9181,VALID,0,VALID,18.3875,VALID,94,VALID,0.901316,
2003-06-20, 02:54:00,VALID,915.835,VALID,0,VALID,98.796,VALID,-0.0169808,VALID,18.426,VALID,102,VALID,1.19286,
2003-06-20, 02:55:00,VALID,915.803,VALID,0,VALID,98.6384,VALID,-0.0339617,VALID,18.4777,VALID,108,VALID,1.45848,
2003-06-20, 02:56:00,VALID,915.773,VALID,0,VALID,98.3523,VALID,0,VALID,18.5229,VALID,111,VALID,1.52744,
2003-06-20, 02:57:00,VALID,915.749,VALID,0,VALID,98.0267,VALID,-0.0509425,VALID,18.5683,VALID,103,VALID,1.54527,
2003-06-20, 02:58:00,VALID,915.744,VALID,0,VALID,97.5092,VALID,-0.0169808,VALID,18.6008,VALID,99,VALID,1.34531,
2003-06-20, 02:59:00,VALID,915.747,VALID,0,VALID,96.9751,VALID,-0.0679233,VALID,18.604,VALID,86,VALID,1.08887,
2003-06-20, 03:00:00,VALID,915.756,VALID,0,VALID,96.7907,VALID,-0.0679233,VALID,18.6008,VALID,88,VALID,1.29665,
2003-06-20, 03:01:00,VALID,915.773,VALID,0,VALID,96.7831,VALID,-0.0679233,VALID,18.6003,VALID,92,VALID,1.3812,
2003-06-20, 03:02:00,VALID,915.783,VALID,0,VALID,96.7551,VALID,-0.0509425,VALID,18.6266,VALID,88,VALID,1.16221,
2003-06-20, 03:03:00,VALID,915.787,VALID,0,VALID,96.6674,VALID,-0.0339617,VALID,18.646,VALID,95,VALID,1.25089,
2003-06-20, 03:04:00,VALID,915.805,VALID,0,VALID,96.5949,VALID,-0.0509425,VALID,18.6485,VALID,108,VALID,1.28705,
2003-06-20, 03:05:00,VALID,915.792,VALID,0,VALID,96.4448,VALID,-0.0169808,VALID,18.6647,VALID,116,VALID,1.23678,
2003-06-20, 03:06:00,VALID,915.798,VALID,0,VALID,96.455,VALID,-0.0509425,VALID,18.6778,VALID,114,VALID,1.2523,
2003-06-20, 03:07:00,VALID,915.8,VALID,0,VALID,96.2376,VALID,-0.0339617,VALID,18.6776,VALID,124,VALID,0.795313,
2003-06-20, 03:08:00,VALID,915.795,VALID,0,VALID,96.1206,VALID,-0.0339617,VALID,18.6649,VALID,124,VALID,0.767969,
2003-06-20, 03:09:00,VALID,915.803,VALID,0,VALID,96.2299,VALID,-0.0169808,VALID,18.6554,VALID,110,VALID,0.945759,
2003-06-20, 03:10:00,VALID,915.801,VALID,0,VALID,96.2439,VALID,-0.0169808,VALID,18.6453,VALID,120,VALID,0.810662,
2003-06-20, 03:11:00,VALID,915.817,VALID,0,VALID,96.2872,VALID,-0.0169808,VALID,18.6423,VALID,105,VALID,0.780633,
2003-06-20, 03:12:00,VALID,915.813,VALID,0,VALID,96.3813,VALID,-0.0169808,VALID,18.6458,VALID,92,VALID,0.805134,
2003-06-20, 03:13:00,VALID,915.809,VALID,0,VALID,96.3037,VALID,-0.0169808,VALID,18.6289,VALID,102,VALID,0.820313,
2003-06-20, 03:14:00,VALID,915.82,VALID,0,VALID,96.3266,VALID,-0.0339617,VALID,18.6358,VALID,111,VALID,0.734375,
2003-06-20, 03:15:00,VALID,915.816,VALID,0,VALID,96.2694,VALID,-0.0679233,VALID,18.6195,VALID,96,VALID,0.536994,
2003-06-20, 03:16:00,VALID,915.812,VALID,0,VALID,96.3533,VALID,0,VALID,18.5966,VALID,116,VALID,0.545313,
2003-06-20, 03:17:00,VALID,915.8,VALID,0,VALID,96.3329,VALID,-0.0169808,VALID,18.5906,VALID,132,VALID,0.408203,
2003-06-20, 03:18:00,VALID,915.788,VALID,0,VALID,96.2732,VALID,-0.0169808,VALID,18.5713,VALID,136,VALID,0.454018,
2003-06-20, 03:19:00,VALID,915.773,VALID,0,VALID,96.1397,VALID,0,VALID,18.5291,VALID,124,VALID,0.466452,
2003-06-20, 03:20:00,VALID,915.758,VALID,0,VALID,96.1816,VALID,-0.0169808,VALID,18.4841,VALID,124,VALID,0.260896,
2003-06-20, 03:21:00,VALID,915.761,VALID,0,VALID,96.1295,VALID,-0.0169808,VALID,18.4387,VALID,120,VALID,0.31183,
2003-06-20, 03:22:00,VALID,915.758,VALID,0,VALID,96.1549,VALID,-0.0169808,VALID,18.3967,VALID,111,VALID,0.435714,
2003-06-20, 03:23:00,VALID,915.755,VALID,0,VALID,96.3062,VALID,0,VALID,18.3327,VALID,95,VALID,0.441306,
2003-06-20, 03:24:00,VALID,915.777,VALID,0,VALID,96.6318,VALID,-0.0339617,VALID,18.3167,VALID,97,VALID,0.431526,
2003-06-20, 03:25:00,VALID,915.786,VALID,0,VALID,97.0667,VALID,-0.0169808,VALID,18.3227,VALID,111,VALID,0.738616,
2003-06-20, 03:26:00,VALID,915.78,VALID,0,VALID,97.1722,VALID,-0.0169808,VALID,18.3391,VALID,113,VALID,0.683594,
2003-06-20, 03:27:00,VALID,915.773,VALID,0,VALID,97.2739,VALID,-0.0339617,VALID,18.3518,VALID,124,VALID,0.828571,
2003-06-20, 03:28:00,VALID,915.761,VALID,0,VALID,97.2015,VALID,-0.0169808,VALID,18.3811,VALID,113,VALID,0.83295,
2003-06-20, 03:29:00,VALID,915.75,VALID,0,VALID,97.1748,VALID,-0.0339617,VALID,18.3808,VALID,105,VALID,0.886513,
2003-06-20, 03:30:00,VALID,915.729,VALID,0,VALID,96.9446,VALID,-0.0679233,VALID,18.3813,VALID,98,VALID,0.820982,
2003-06-20, 03:31:00,VALID,915.722,VALID,0,VALID,96.9204,VALID,-0.0509425,VALID,18.3419,VALID,82,VALID,0.934821,
2003-06-20, 03:32:00,VALID,915.715,VALID,0,VALID,96.4728,VALID,-0.0679233,VALID,18.3197,VALID,84,VALID,0.778446,
2003-06-20, 03:33:00,VALID,915.706,VALID,0,VALID,96.5682,VALID,-0.0169808,VALID,18.2716,VALID,71,VALID,1.00689,
2003-06-20, 03:34:00,VALID,915.698,VALID,0,VALID,96.82,VALID,-0.0169808,VALID,18.2681,VALID,80,VALID,1.01518,